Regional Weather Roundup
Issued by NWS Cleveland, OH

Home | Current Version | Previous Version | Graphics & Text | Print | Product List | Glossary Off
Versions: 1 2 3 4 5 6 7 8 9 10 11 12 13 14 15 16 17 18 19 20 21 22 23 24 25 26 27 28 29 30 31 32 33 34 35 36 37 38 39 40 41 42 43 44 45 46 47 48 49 50

000
ASUS41 KCLE 111810
RWRCLE
OHIO REGIONAL WEATHER ROUNDUP
NATIONAL WEATHER SERVICE WILMINGTON, OH
200 PM EDT FRI JUL 11 2014

NOTE: "FAIR" INDICATES FEW OR NO CLOUDS BELOW 12,000 FEET WITH NO
SIGNIFICANT WEATHER AND/OR OBSTRUCTIONS TO VISIBILITY.

OHZ001>008-015>018-024>027-034-035-043-044-111900-
   NORTHWEST OHIO

CITY           SKY/WX    TMP DP  RH WIND       PRES   REMARKS
DEFIANCE       MOSUNNY   79  56  45 VRB5      30.22F
FINDLAY        SUNNY     80  55  42 CALM      30.21F
TOLEDO EXPRESS MOSUNNY   79  57  46 SE6       30.21F
TOLEDO METCALF MOSUNNY   79  56  45 SE9       30.22F
LIMA           MOSUNNY   79  58  48 S5        30.23F
$$

OHZ009>014-019>023-028>033-038-089-111900-
   NORTHEAST OHIO

CITY           SKY/WX    TMP DP  RH WIND       PRES   REMARKS
CLE-HOPKINS    SUNNY     77  56  48 N9        30.24F
CLE-LAKEFRONT  SUNNY     75  61  61 NE9       30.21F
CUY CO. ARPT   MOSUNNY   79  57  47 N12       30.24F
LORAIN-ELYRIA  SUNNY     81  58  45 N7        30.23F
ASHTABULA      SUNNY     77  59  53 VRB6      30.24S
AKRON-CANTON   MOSUNNY   82  56  40 E7        30.22F
WOOSTER        SUNNY     81  55  40 SW7       30.23F
MANSFIELD      SUNNY     79  53  40 W3        30.24F
YOUNGSTOWN     PTSUNNY   80  58  46 N5        30.23S
$$

OHZ042-051>053-060>062-070>072-077>081-111900-
  SOUTHWEST OHIO

CITY           SKY/WX    TMP DP  RH WIND       PRES   REMARKS
CINC-COVINGTON MOSUNNY   81  55  40 CALM      30.21F
CINC-LUNKEN    SUNNY     84  58  40 VRB5      30.20F
HAMILTON       SUNNY     84  59  42 VRB5      30.21F
DAYTON         PTSUNNY   81  59  47 NW5       30.23F
WRIGHT-PAT AFB MOSUNNY   80  58  46 NE6       30.22F
DAYTON GENERAL MOSUNNY   79  57  46 CALM      30.22S
WILMINGTON     MOSUNNY   81  57  43 VRB5      30.22F
$$

OHZ036-037-039>041-045>050-054>059-063>069-073>076-082>088-111900-
  CENTRAL AND SOUTHEAST OHIO

CITY           SKY/WX    TMP DP  RH WIND       PRES   REMARKS
COLUMBUS       MOSUNNY   84  53  34 CALM      30.20F
OSU AIRPORT    MOSUNNY   81  53  37 VRB3      30.22F
BOLTON FIELD   SUNNY     81  59  47 SW5       30.22F
RICKENBACK AFB SUNNY     84  45  25 W3        30.21S
NEWARK         MOSUNNY   80  56  43 W7        30.21F
MARION         SUNNY     79  54  41 NW5       30.22F
LANCASTER      SUNNY     82  55  39 CALM      30.22F
ZANESVILLE     CLOUDY    80  58  46 N3        30.21F
NEW PHILLY     SUNNY     81  61  50 NE6       30.22F
$$


USA.gov is the U.S. government's official web portal to all federal, state and local government web resources and services.